カタログに戻る

SL-14 DEB

運用中PO
NORAD 26003·DEBRIS·🇷🇺 Russia

打ち上げ Sep 28, 1991 から Plesetsk Cosmodrome

Loading…

次のパス (今後24時間)

TLE

最新Source: Space-Track

元期: Sep 14, 2026, 01:00 UTC

1 26003U 91068N   26257.04217990  .00001296  00000-0  64097-2 0  9995
2 26003  82.7195 104.1317 0061233 142.1139  11.4853 12.70210709235885

AllMySatでSL-14 DEBをリアルタイム追跡

Download on the App Store